Bishop, CA

4:49 PM PST on November 23, 2017 (GMT -0800)
Bishop

Weather History for KBIH - May, 2013

Change the Weather History Date:

Thursday, May 23, 2013

  Actual Average Record
Temperature  
Mean Temperature 57 °F 65 °F  
Max Temperature 80 °F 85 °F 98 °F (1984)
Min Temperature 34 °F 46 °F 33 °F (1959)
Degree Days  
Heating Degree Days 8 3  
Month to date heating degree days 62 101  
Since 1 July heating degree days 3843 4143  
Cooling Degree Days 0 3  
Month to date cooling degree days 40 35  
Year to date cooling degree days 60 39  
Growing Degree Days 7 (Base 50)    
Moisture  
Dew Point 2 °F    
Average Humidity 18    
Maximum Humidity 32    
Minimum Humidity 3    
Precipitation  
Precipitation 0.00 in 0.01 in 0.53 in (2015)
Month to date precipitation 0.47 0.14  
Year to date precipitation 0.47 2.83  
Snow  
Snow 0.00 in 0.00 in - ()
Month to date snowfall 0.0 0.0  
Since 1 July snowfall 2.8 8.0  
Snow Depth 0.00 in    
Sea Level Pressure  
Sea Level Pressure 29.70 in    
Wind  
Wind Speed 8 mph (NNW)    
Max Wind Speed 22 mph    
Max Gust Speed 29 mph    
Visibility 10 miles    
Events      
T = Trace of Precipitation, MM = Missing Value Source: NWS Daily Summary

Daily Weather History Graph

Daily Weather History Graph

Search for Another Location

Airport or City:

Trip Planner

Search our weather history database for the weather conditions in past years. The results will help you decide how hot, cold, wet, or windy it might be!

Date:

Astronomy

May. 23, 2013 Rise Set
Actual Time 5:38 AM PDT 8:02 PM PDT
Civil Twilight 5:08 AM PDT 8:32 PM PDT
Nautical Twilight 4:31 AM PDT 9:09 PM PDT
Astronomical Twilight 3:51 AM PDT 9:49 PM PDT
Moon 6:41 PM PDT (5/23) 4:24 AM PDT (5/23)
Length of Visible Light 15h 23m
Length of Day
14h 23m
Waxing Gibbous, 97% of the Moon is Illuminated
May 23
Waxing Gibbous
May 24
Full
May 31
Last Quarter
Jun 8
New
Jun 16
First Quarter

Hourly Weather History & Observations

Time (PDT) Temp. Windchill Dew Point Humidity Pressure Visibility Wind Dir Wind Speed Gust Speed Precip Events Conditions
12:56 AM 52.0 °F - 3.9 °F 14% 29.64 in 10.0 mi North 9.2 mph - N/A   Clear
1:56 AM 50.0 °F - 3.0 °F 15% 29.66 in 10.0 mi NW 6.9 mph - N/A   Clear
2:56 AM 48.0 °F - 3.0 °F 16% 29.66 in 10.0 mi NW 5.8 mph - N/A   Clear
3:56 AM 44.1 °F 41.5 °F 5.0 °F 20% 29.67 in 10.0 mi West 4.6 mph - N/A   Clear
4:56 AM 41.0 °F 35.8 °F 5.0 °F 23% 29.68 in 10.0 mi NNW 8.1 mph - N/A   Clear
5:56 AM 37.0 °F 32.4 °F 10.0 °F 33% 29.70 in 10.0 mi NW 5.8 mph - N/A   Clear
6:56 AM 46.0 °F 43.1 °F 12.9 °F 26% 29.70 in 10.0 mi WNW 5.8 mph - N/A   Clear
7:56 AM 54.0 °F - 5.0 °F 14% 29.71 in 10.0 mi NNW 4.6 mph - N/A   Clear
8:56 AM 57.0 °F - 5.0 °F 12% 29.71 in 10.0 mi Calm Calm - N/A   Clear
9:56 AM 62.1 °F - 1.0 °F 9% 29.68 in 10.0 mi Calm Calm - N/A   Clear
10:56 AM 66.0 °F - 1.0 °F 8% 29.67 in 10.0 mi NNE 3.5 mph - N/A   Clear
11:56 AM 69.1 °F - -0.0 °F 6% 29.66 in 10.0 mi Variable 3.5 mph - N/A   Clear
12:56 PM 72.0 °F - -0.9 °F 6% 29.65 in 10.0 mi South 9.2 mph - N/A   Clear
1:56 PM 73.9 °F - -6.0 °F 4% 29.65 in 10.0 mi South 5.8 mph - N/A   Clear
2:56 PM 77.0 °F - -7.1 °F 4% 29.64 in 10.0 mi SSW 11.5 mph 17.3 mph N/A   Clear
3:56 PM 79.0 °F - -2.9 °F 4% 29.65 in 10.0 mi WNW 6.9 mph - N/A   Clear
4:56 PM 79.0 °F - -6.0 °F 4% 29.68 in 10.0 mi NNW 20.7 mph 27.6 mph N/A   Clear
5:56 PM 75.9 °F - -0.9 °F 5% 29.70 in 10.0 mi North 19.6 mph 26.5 mph N/A   Clear
6:56 PM 73.9 °F - 1.9 °F 6% 29.71 in 10.0 mi North 15.0 mph - N/A   Clear
7:56 PM 68.0 °F - 3.0 °F 8% 29.75 in 10.0 mi North 13.8 mph - N/A   Clear
8:56 PM 63.0 °F - -0.0 °F 8% 29.79 in 10.0 mi NNW 9.2 mph - N/A   Clear
9:56 PM 59.0 °F - 1.0 °F 10% 29.82 in 10.0 mi North 9.2 mph - N/A   Clear
10:56 PM 57.0 °F - 6.1 °F 13% 29.83 in 10.0 mi NNW 8.1 mph - N/A   Clear
11:56 PM 57.0 °F - 7.0 °F 14% 29.84 in 10.0 mi North 13.8 mph 19.6 mph N/A   Clear